Date,TemperatureHighF,TemperatureAvgF,TemperatureLowF,DewpointHighF,DewpointAvgF,DewpointLowF,HumidityHigh,HumidityAvg,HumidityLow,PressureMaxIn,PressureMinIn,WindSpeedMaxMPH,WindSpeedAvgMPH,GustSpeedMaxMPH,PrecipitationSumIn
2013-1-1,16,1,-15,11,-5,-22,82,74,64,30.35,30.08,12,4,13,0.00
2013-1-2,18,15,13,15,11,7,89,84,79,30.11,30.00,17,8,17,0.00
2013-1-3,19,15,9,16,8,1,88,77,60,30.27,30.00,24,8,24,0.00
2013-1-4,31,18,9,18,11,5,86,75,55,30.11,29.96,20,5,24,0.00
2013-1-5,23,15,4,16,10,0,88,79,66,30.08,29.82,19,4,20,0.00
2013-1-6,21,16,10,16,9,5,88,74,55,30.18,29.95,25,6,28,0.00
2013-1-7,36,27,16,24,20,10,87,74,60,29.98,29.82,33,12,33,0.00
2013-1-8,33,18,11,28,15,8,91,88,81,29.94,29.71,21,6,21,0.02
2013-1-9,33,27,23,20,18,16,78,69,58,30.30,30.17,20,8,23,0.00
2013-1-10,38,33,25,32,24,18,94,69,48,30.27,29.69,24,13,28,0.29
2013-1-11,34,34,33,34,33,32,100,96,94,29.69,29.50,21,12,22,0.00
2013-1-12,17,12,5,10,3,-2,74,67,61,30.05,29.64,31,10,33,0.01
2013-1-13,8,5,2,1,-1,-4,78,74,68,30.17,30.01,13,4,13,0.00
2013-1-14,10,8,6,3,1,-1,75,72,70,30.38,30.27,16,6,16,0.00
2013-1-15,26,17,7,16,9,3,83,71,52,30.27,29.75,21,11,24,0.00
2013-1-16,33,24,9,28,14,-6,90,67,45,30.22,29.57,27,10,29,0.01
2013-1-17,15,9,3,4,-2,-7,79,62,51,30.38,30.21,16,3,16,0.00
2013-1-18,37,23,11,28,18,4,92,80,67,30.29,29.66,24,7,25,0.03
2013-1-19,36,20,2,28,13,-8,93,76,51,30.16,29.62,36,9,43,0.01
2013-1-20,5,0,-6,-5,-10,-15,72,64,52,30.40,30.15,19,7,20,0.00
2013-1-21,-5,-9,-14,-15,-20,-24,67,57,46,30.35,30.26,19,7,21,0.00
2013-1-22,0,-9,-19,-11,-18,-27,70,62,49,30.43,30.27,11,4,13,0.00
2013-1-23,13,2,-11,3,-9,-21,77,60,42,30.64,30.16,32,7,33,0.00
2013-1-24,9,-2,-12,-1,-13,-22,65,60,55,30.71,30.17,20,5,23,0.00
2013-1-25,18,12,1,11,3,-6,79,68,53,30.29,29.89,26,10,26,0.00
2013-1-26,21,8,-8,10,-1,-14,78,66,53,30.36,30.13,23,5,23,0.00
2013-1-27,32,28,21,27,20,10,93,74,58,30.12,29.76,21,8,26,0.26
2013-1-28,33,29,25,30,27,23,94,92,89,29.86,29.58,17,3,19,0.00
2013-1-29,35,31,26,32,28,18,96,87,71,29.69,29.46,20,4,21,0.01
2013-1-30,26,16,9,18,8,1,83,72,62,29.70,29.60,26,10,26,0.00
2013-1-31,9,2,-10,1,-8,-20,77,64,53,30.27,29.70,24,10,26,0.00
2013-2-1,0,-7,-18,-6,-17,-26,75,63,47,30.33,30.10,11,4,14,0.01
2013-2-2,7,2,-9,1,-6,-14,79,70,56,30.20,29.97,10,2,11,0.00
2013-2-3,15,9,2,2,0,-4,80,66,48,30.06,29.96,18,4,21,0.00
2013-2-4,12,7,-4,6,-5,-12,80,59,44,30.08,29.72,20,3,22,0.00
2013-2-5,24,18,2,19,10,-4,85,73,51,30.05,29.60,21,5,21,0.00
2013-2-6,23,13,-2,20,9,-8,85,81,76,30.09,29.94,12,3,15,0.00
2013-2-7,28,24,22,20,19,17,90,81,71,30.23,30.00,19,6,19,0.00
2013-2-8,26,17,3,17,9,-2,87,72,57,30.37,30.21,17,4,21,0.00
2013-2-9,30,26,18,26,22,12,92,84,76,30.21,29.91,25,13,25,0.00
2013-2-10,32,29,26,31,26,22,96,90,82,29.91,29.24,20,6,21,0.55
2013-2-11,31,25,18,30,21,12,96,83,72,29.97,29.25,24,8,24,0.00
2013-2-12,34,20,6,22,14,2,86,77,58,29.98,29.73,18,8,19,0.00
2013-2-13,35,27,18,29,22,15,94,81,67,29.74,29.54,13,4,13,0.08
2013-2-14,32,23,8,29,15,-1,94,72,37,30.12,29.56,22,5,27,0.01
2013-2-15,18,9,1,1,-1,-5,77,62,45,30.28,30.12,18,4,18,0.00
2013-2-16,17,5,-5,3,-4,-11,80,68,50,30.24,30.12,10,2,11,0.00
2013-2-17,27,16,-8,16,7,-14,80,67,61,30.13,29.61,31,14,32,0.00
2013-2-18,33,24,10,27,17,1,83,73,66,29.73,29.45,29,12,29,0.00
2013-2-19,10,4,-5,1,-8,-13,70,59,45,30.35,29.73,28,11,30,0.00
2013-2-20,18,4,-10,2,-6,-16,74,64,46,30.48,30.35,10,3,12,0.00
2013-2-21,24,11,-6,15,2,-12,80,67,48,30.49,30.09,14,4,17,0.00
2013-2-22,30,23,18,23,19,14,89,83,72,30.09,29.81,16,3,19,0.19
2013-2-23,35,26,17,25,20,14,92,80,60,29.90,29.78,10,1,12,0.02
2013-2-24,36,23,12,22,17,9,89,77,55,30.06,29.89,7,2,9,0.00
2013-2-25,35,23,12,24,17,9,90,78,59,30.08,30.01,7,1,8,0.00
2013-2-26,40,24,6,26,17,2,88,76,54,30.04,29.84,23,5,27,0.00
2013-2-27,37,30,24,25,23,19,82,74,58,29.97,29.82,27,9,27,0.00
2013-2-28,30,27,21,21,18,13,81,69,61,30.20,29.97,18,6,19,0.00
2013-3-1,31,23,10,16,13,5,81,65,47,30.33,30.20,18,4,20,0.00
2013-3-2,31,14,-5,13,5,-11,86,67,45,30.35,30.14,10,1,11,0.00
2013-3-3,32,19,3,8,2,-4,81,51,28,30.14,29.98,16,5,17,0.00
2013-3-4,27,24,20,21,12,-3,88,62,34,30.03,29.95,27,6,27,0.00
2013-3-5,29,24,15,24,20,12,90,86,80,30.27,29.97,15,4,18,0.59
2013-3-6,31,17,4,17,11,0,88,77,53,30.40,30.26,18,2,21,0.00
2013-3-7,32,14,-6,18,5,-12,83,68,50,30.40,30.27,13,3,15,0.00
2013-3-8,37,31,19,28,23,13,82,74,65,30.28,30.04,19,9,19,0.00
2013-3-9,35,34,32,34,32,26,97,91,70,30.04,29.65,23,8,23,0.24
2013-3-10,34,32,28,33,28,22,99,84,75,29.92,29.73,24,10,25,0.00
2013-3-11,31,27,23,22,20,17,82,77,60,29.83,29.68,19,6,20,0.00
2013-3-12,31,23,17,19,13,8,84,67,39,30.13,29.76,26,7,32,0.00
2013-3-13,36,21,8,13,9,5,85,61,32,30.33,30.13,15,3,16,0.00
2013-3-14,40,28,21,27,22,12,88,76,58,30.22,29.97,15,6,18,0.03
2013-3-15,35,29,20,30,23,16,93,81,56,29.97,29.83,17,4,18,0.24
2013-3-16,28,19,9,16,9,-1,86,67,43,30.21,29.89,17,6,21,0.00
2013-3-17,24,8,-5,7,-2,-11,76,62,44,30.26,30.04,25,6,25,0.00
2013-3-18,27,20,12,24,14,4,91,77,66,29.72,29.54,27,13,29,0.04
2013-3-19,26,14,6,6,0,-8,72,56,40,30.13,29.72,25,10,25,0.00
2013-3-20,24,12,2,5,-2,-9,66,53,39,30.16,30.07,26,8,27,0.00
2013-3-21,31,13,-7,10,1,-13,81,62,38,30.12,30.03,14,1,14,0.00
2013-3-22,39,19,-3,17,7,-9,82,61,35,30.07,29.99,10,1,11,0.00
2013-3-23,42,28,15,23,16,9,78,61,43,30.13,30.02,9,1,10,0.00
2013-3-24,33,29,24,23,19,17,73,67,58,30.04,29.95,20,6,20,0.00
2013-3-25,41,28,14,22,16,10,86,63,39,30.15,30.00,23,4,24,0.00
2013-3-26,41,34,28,23,20,13,70,56,33,30.23,30.14,12,2,14,0.00
2013-3-27,46,35,26,23,19,14,73,55,29,30.28,30.23,12,1,13,0.00
2013-3-28,46,31,15,22,18,11,85,59,32,30.31,30.23,11,3,12,0.00
2013-3-29,45,35,22,34,25,16,86,68,53,30.24,30.01,24,9,24,0.07
2013-3-30,54,41,36,41,36,31,96,82,56,30.01,29.75,31,7,31,0.43
2013-3-31,39,33,24,31,22,11,88,65,37,30.01,29.69,35,9,35,0.00
2013-4-1,36,25,16,15,11,8,73,56,31,30.19,30.01,27,8,27,0.00
2013-4-2,39,26,14,16,12,9,82,57,34,30.31,30.19,20,4,22,0.00
2013-4-3,42,30,14,29,19,10,86,64,42,30.36,29.97,27,10,29,0.00
2013-4-4,49,40,28,32,26,18,77,57,35,30.11,29.89,26,9,27,0.00
2013-4-5,40,32,20,29,19,13,83,59,39,30.21,29.89,20,6,22,0.00
2013-4-6,47,37,34,36,31,24,96,79,51,29.89,29.49,29,9,30,0.22
2013-4-7,43,37,33,34,32,30,95,82,66,29.88,29.67,14,3,16,0.01
2013-4-9,44,37,33,34,28,20,93,71,49,30.14,29.95,24,8,27,0.00
2013-4-10,41,36,31,24,20,17,65,54,40,30.15,29.91,24,8,24,0.00
2013-4-11,36,33,28,31,24,11,94,74,39,29.92,29.68,54,8,54,0.26
2013-4-12,36,30,27,31,26,23,93,83,65,29.79,29.63,19,4,19,0.11
2013-4-13,40,31,24,25,21,15,90,69,40,29.93,29.76,15,2,15,0.01
2013-4-14,35,30,20,32,24,15,92,80,57,29.93,29.46,33,7,33,0.35
2013-4-15,41,36,32,34,28,24,92,74,61,29.88,29.45,31,15,34,0.00
2013-4-16,47,38,33,28,26,23,77,64,43,30.27,29.88,21,4,21,0.00
2013-4-17,34,33,32,31,31,30,94,92,86,29.99,29.89,15,5,18,0.06
2013-4-18,33,32,30,32,30,28,99,94,89,29.90,29.42,20,6,25,0.76
2013-4-19,40,33,23,32,25,16,90,74,52,29.93,29.52,34,9,38,0.04
2013-4-20,40,27,13,17,12,6,80,56,29,30.26,29.93,13,2,13,0.00
2013-4-21,42,36,30,41,30,13,97,79,47,30.26,29.95,34,13,34,0.11
2013-4-22,44,37,32,37,30,23,96,79,48,30.17,30.05,24,7,25,0.23
2013-4-23,44,35,28,32,25,12,96,69,32,30.09,29.99,20,7,22,0.07
2013-4-24,51,35,24,34,26,19,91,70,31,30.00,29.81,30,8,32,0.00
2013-4-25,52,40,28,30,27,19,94,64,30,30.12,29.89,20,7,21,0.00
2013-4-26,74,56,41,42,35,26,72,49,24,30.04,29.88,22,7,26,0.01
2013-4-27,76,57,32,48,36,28,88,52,21,30.05,29.77,20,6,23,0.00
2013-4-28,79,62,50,60,47,43,86,61,31,29.77,29.56,33,13,33,0.08
2013-4-29,77,60,41,54,42,32,86,56,22,29.73,29.46,20,5,21,0.00
2013-4-30,73,64,55,58,44,22,79,52,22,29.91,29.30,32,12,35,0.00
2013-5-1,55,41,33,39,33,27,94,76,47,30.49,29.91,18,3,18,0.25
2013-5-2,46,39,34,29,26,23,83,60,45,30.54,30.43,23,8,23,0.00
2013-5-3,36,33,30,31,28,23,92,83,60,30.43,30.18,20,7,24,0.08
2013-5-4,46,37,32,39,34,29,95,88,76,30.20,30.15,17,6,17,0.26
2013-5-5,68,49,36,46,39,33,91,72,45,30.19,30.05,13,4,15,0.00
2013-5-6,78,58,37,48,42,35,93,61,28,30.10,29.98,17,3,20,0.00
2013-5-7,81,62,43,51,42,37,90,53,21,30.03,29.92,21,5,22,0.00
2013-5-8,78,62,47,54,46,39,89,60,30,29.98,29.92,19,4,19,0.02
2013-5-9,56,48,38,53,43,28,93,83,61,30.13,29.94,27,9,32,0.08
2013-5-10,69,50,30,33,27,20,82,47,18,30.14,29.84,17,4,17,0.00
2013-5-11,55,44,36,39,26,19,70,49,34,30.16,29.84,37,13,37,0.00
2013-5-12,58,43,27,24,19,12,75,43,19,30.21,30.09,26,7,29,0.00
2013-5-13,66,51,28,42,29,16,71,43,24,30.11,29.62,32,13,32,0.01
2013-5-14,94,69,42,51,43,32,88,47,14,29.73,29.41,30,10,33,0.00
2013-5-15,84,67,47,46,42,35,80,44,19,29.86,29.60,29,6,29,0.00
2013-5-16,83,67,46,46,37,24,83,40,17,29.90,29.77,20,6,23,0.00
2013-5-17,68,61,55,54,45,22,84,58,19,29.99,29.88,24,9,27,0.00
2013-5-18,77,63,53,66,57,49,96,82,64,29.99,29.76,26,9,26,0.48
2013-5-19,83,69,61,66,62,59,98,78,50,29.77,29.57,42,10,52,0.68
2013-5-20,72,63,54,63,59,52,100,87,63,29.58,29.49,28,9,31,0.36
2013-5-21,54,48,44,52,47,42,99,95,88,29.74,29.53,17,6,19,0.52
2013-5-22,52,47,43,47,44,41,95,89,79,30.02,29.71,22,7,24,0.09
2013-5-23,64,51,40,42,32,23,95,53,23,30.34,30.02,24,7,24,0.00
2013-5-24,68,53,31,46,35,29,94,57,27,30.40,30.20,21,7,24,0.01
2013-5-25,65,57,52,50,48,44,90,70,55,30.25,30.21,25,9,30,0.03
2013-5-26,70,58,49,46,40,33,75,52,29,30.25,30.05,28,7,29,0.00
2013-5-27,61,58,55,54,48,42,83,71,59,30.05,29.83,20,6,24,0.02
2013-5-28,60,56,53,56,52,49,95,87,77,29.84,29.70,13,4,17,0.01
2013-5-29,81,66,56,67,59,55,96,81,51,29.82,29.63,24,7,28,0.03
2013-5-30,79,69,63,66,62,60,96,81,57,29.66,29.50,30,15,33,0.50
2013-5-31,79,65,59,65,59,55,95,82,48,29.54,29.47,34,14,36,0.57
2013-6-1,71,58,49,61,53,41,93,83,67,29.92,29.52,27,7,29,0.02
2013-6-2,68,55,45,44,40,35,85,60,32,30.06,29.91,19,5,20,0.01
2013-6-3,74,56,40,47,41,37,95,63,28,30.04,29.96,15,3,16,0.00
2013-6-4,64,57,52,51,46,37,96,66,46,30.12,29.99,26,8,27,0.54
2013-6-5,56,53,50,55,52,49,97,96,93,30.05,29.94,18,5,19,0.96
2013-6-6,56,51,47,52,50,47,99,95,82,30.04,29.97,15,4,15,0.01
2013-6-7,67,56,48,54,51,47,96,84,59,30.04,29.90,9,1,10,0.00
2013-6-8,70,57,52,56,53,51,98,86,56,29.91,29.89,14,2,17,0.00
2013-6-9,63,60,56,60,58,55,100,92,87,29.82,29.78,14,4,14,0.32
2013-6-10,73,62,53,64,58,52,100,90,67,29.83,29.79,10,1,12,0.00
2013-6-11,82,66,51,67,61,51,100,84,55,29.85,29.79,13,2,13,0.00
2013-6-12,76,65,56,67,59,49,95,81,57,29.91,29.75,17,4,19,0.03
2013-6-13,80,66,50,59,52,47,93,63,39,30.07,29.91,17,4,17,0.00
2013-6-14,78,66,51,60,55,48,92,69,50,30.07,29.85,24,9,28,0.00
2013-6-15,75,68,61,67,62,56,96,83,66,29.86,29.80,26,6,28,0.08
2013-6-16,87,70,54,59,52,44,96,58,23,29.86,29.77,28,7,33,0.00
2013-6-17,80,65,54,66,55,47,96,72,43,30.01,29.79,19,4,20,0.08
2013-6-18,77,61,45,56,50,42,93,70,43,30.09,30.01,12,3,15,0.00
2013-6-19,83,69,53,62,57,50,92,67,41,30.04,29.91,20,9,22,0.00
2013-6-20,84,74,66,70,64,58,85,70,56,29.97,29.87,27,12,28,0.00
2013-6-21,80,70,62,68,64,61,96,80,60,30.04,29.65,37,8,41,1.30
2013-6-22,80,70,64,69,66,62,99,89,65,29.96,29.82,21,4,28,0.20
2013-6-23,84,73,62,70,65,61,100,80,53,29.83,29.63,32,12,36,0.32
2013-6-24,84,72,59,71,65,58,99,79,54,29.87,29.76,18,6,19,0.00
2013-6-25,87,74,61,69,65,60,97,76,50,29.80,29.67,19,7,19,0.00
2013-6-26,87,77,69,77,70,65,96,81,58,29.75,29.61,20,7,21,0.09
2013-6-27,87,75,63,67,62,54,93,67,37,29.75,29.72,28,6,28,0.00
2013-6-28,78,67,60,67,61,56,98,83,58,29.76,29.69,27,6,32,0.18
2013-6-29,76,66,56,64,57,48,99,77,40,29.97,29.72,23,6,25,0.47
2013-6-30,84,66,50,60,53,48,96,68,31,30.08,29.97,18,3,19,0.00
2013-7-1,84,69,54,64,56,51,97,69,35,30.16,30.08,16,3,16,0.00
2013-7-2,86,67,50,58,52,47,93,63,33,30.15,30.03,17,3,17,0.00
2013-7-3,87,68,51,60,52,45,96,64,25,30.05,29.92,16,2,16,0.00
2013-7-4,88,74,60,64,58,53,82,60,34,29.92,29.81,23,12,25,0.00
2013-7-5,88,78,67,64,61,58,72,56,41,29.86,29.75,32,16,32,0.00
2013-7-6,85,78,72,71,64,59,74,64,50,29.83,29.75,22,12,25,0.00
2013-7-7,92,80,66,73,68,64,97,70,51,29.87,29.76,19,7,20,0.12
2013-7-8,83,66,56,70,63,56,99,89,62,30.00,29.85,14,4,14,0.00
2013-7-9,84,72,64,72,67,64,99,87,65,29.94,29.74,33,7,34,0.74
2013-7-11,84,75,55,64,59,54,97,60,39,30.08,29.94,20,8,21,0.00
2013-7-12,86,76,67,65,61,57,73,60,42,29.99,29.85,29,16,33,0.00
2013-7-13,77,71,65,69,64,57,93,79,56,30.04,29.86,32,11,32,0.04
2013-7-14,86,74,69,70,64,60,87,73,46,30.15,30.03,21,9,21,0.01
2013-7-15,89,78,65,70,66,63,93,69,45,30.20,30.12,20,8,20,0.00
2013-7-16,95,82,74,73,70,67,89,70,42,30.15,30.11,20,9,22,0.00
2013-7-17,96,83,71,72,69,66,89,65,39,30.19,30.05,20,8,23,0.00
2013-7-18,97,85,75,72,70,66,85,62,39,30.05,29.66,29,13,33,0.00
2013-7-19,86,78,67,72,64,57,89,64,39,29.83,29.62,27,9,28,0.04
2013-7-20,79,68,60,62,57,51,96,70,39,29.95,29.81,14,4,19,0.01
2013-7-21,73,62,53,64,53,46,86,75,58,29.95,29.77,18,5,19,0.00
2013-7-22,89,73,63,71,63,55,96,73,45,29.79,29.61,28,11,30,0.00
2013-7-23,80,65,55,54,52,48,90,64,36,30.00,29.80,17,6,19,0.00
2013-7-24,80,63,51,59,54,48,94,75,45,30.06,29.93,16,4,16,0.00
2013-7-25,84,70,60,64,60,57,95,73,43,29.94,29.86,21,6,22,0.35
2013-7-26,67,59,48,62,55,45,99,88,72,30.07,29.85,28,7,31,0.33
2013-7-27,56,52,48,54,49,45,94,88,71,30.07,29.91,24,5,28,0.14
2013-7-28,73,58,49,56,51,46,95,78,52,30.04,29.94,16,4,18,0.00
2013-7-29,80,63,47,60,54,46,99,75,38,30.11,30.03,17,4,19,0.01
2013-7-30,70,64,60,64,61,58,97,89,78,30.09,30.02,15,4,16,0.15
2013-7-31,81,67,56,65,58,49,100,77,37,30.03,29.93,21,4,24,0.00
2013-8-1,81,66,51,59,54,50,94,69,39,29.99,29.83,18,4,18,0.00
2013-8-2,77,65,53,58,54,49,96,71,39,30.01,29.81,19,4,21,0.00
2013-8-3,79,63,48,58,50,39,96,68,27,30.18,30.00,18,3,20,0.00
2013-8-4,79,62,47,57,51,45,96,70,38,30.22,29.98,16,5,17,0.00
2013-8-5,79,67,59,66,62,54,98,84,60,29.98,29.74,27,7,33,0.09
2013-8-6,78,64,54,68,60,53,98,86,61,29.79,29.64,25,4,25,0.78
2013-8-7,78,64,54,60,56,49,100,77,36,30.00,29.73,17,4,18,0.00
2013-8-8,79,63,49,60,55,48,98,77,44,30.01,29.95,18,3,19,0.00
2013-8-9,75,64,51,59,54,49,100,75,41,30.09,29.95,21,4,22,0.00
2013-8-10,77,65,54,59,55,49,92,72,42,30.15,30.07,12,2,12,0.00
2013-8-11,82,66,52,61,56,51,96,74,39,30.08,29.96,13,2,13,0.00
2013-8-12,81,66,55,60,57,52,98,74,41,30.06,29.96,26,4,28,0.00
2013-8-13,77,61,48,56,50,44,99,72,34,30.17,30.06,14,3,14,0.00
2013-8-14,81,63,48,56,50,44,96,68,30,30.18,30.07,14,4,16,0.00
2013-8-15,81,66,52,61,55,50,95,71,40,30.11,30.03,16,4,16,0.00
2013-8-16,85,67,51,62,56,50,96,70,37,30.15,30.09,16,5,19,0.00
2013-8-17,84,68,53,59,54,50,95,64,33,30.17,30.07,24,10,29,0.00
2013-8-18,84,70,55,60,56,52,92,63,38,30.11,29.96,28,10,30,0.00
2013-8-19,87,74,66,67,63,58,79,69,49,29.97,29.85,20,10,21,0.00
2013-8-20,92,78,68,72,68,63,86,71,48,29.87,29.80,23,11,23,0.00
2013-8-21,88,76,65,75,68,59,92,76,49,29.97,29.78,18,7,19,0.00
2013-8-22,89,71,57,60,52,45,93,57,24,30.10,29.97,16,5,17,0.00
2013-8-23,89,69,48,64,55,46,93,66,32,30.14,30.00,18,6,18,0.00
2013-8-24,90,78,69,71,66,61,84,68,49,30.04,29.87,32,18,37,0.00
2013-8-25,98,85,76,73,71,68,79,63,43,29.95,29.85,26,13,29,0.00
2013-8-26,93,84,78,74,74,72,83,71,52,29.81,29.75,12,5,15,0.00
2013-8-27,92,80,70,75,73,68,95,78,55,29.88,29.72,15,4,16,0.00
2013-8-28,93,75,65,72,65,60,99,75,35,29.98,29.88,14,2,15,0.00
2013-8-29,96,80,67,74,69,64,95,73,44,29.97,29.76,25,9,33,0.00
2013-8-30,87,75,67,69,64,58,93,71,43,29.89,29.76,17,7,29,0.00
2013-8-31,89,72,57,66,62,56,99,73,42,29.87,29.67,24,6,28,0.02
2013-9-1,74,66,59,62,58,52,94,76,61,29.95,29.69,20,7,21,0.00
2013-9-2,70,55,47,52,49,44,91,81,49,30.06,29.95,13,4,17,0.00
2013-9-3,80,60,40,56,50,38,99,73,38,30.08,29.95,16,5,20,0.00
2013-9-4,81,67,57,64,58,54,94,75,45,30.14,29.98,14,4,15,0.00
2013-9-5,83,66,48,59,53,45,95,67,31,30.22,30.07,18,6,20,0.00
2013-9-6,92,78,67,68,63,57,92,64,31,30.07,29.81,26,12,27,0.00
2013-9-7,78,70,65,65,63,62,89,79,64,29.86,29.80,14,3,16,0.00
2013-9-8,66,62,59,60,58,53,98,88,66,30.03,29.87,16,5,18,0.50
2013-9-9,89,72,61,74,68,60,99,89,60,29.87,29.58,27,7,30,0.02
2013-9-10,84,72,64,70,65,59,98,82,47,29.94,29.69,18,5,21,0.03
2013-9-11,83,69,59,62,57,47,94,68,29,30.01,29.93,27,6,27,0.00
2013-9-12,72,59,48,55,49,44,98,74,42,30.23,30.00,25,6,25,0.00
2013-9-13,72,53,38,50,43,36,99,73,36,30.28,30.07,11,2,12,0.00
2013-9-14,72,57,48,57,48,42,98,75,41,30.07,29.90,22,8,22,0.85
2013-9-15,61,55,43,58,52,41,99,91,68,30.33,29.88,18,5,21,0.20
2013-9-16,67,49,33,46,39,32,99,72,34,30.43,30.25,15,5,16,0.01
2013-9-17,71,57,47,56,48,40,94,74,51,30.25,29.93,29,14,29,0.00
2013-9-18,70,63,57,66,61,56,100,95,84,29.93,29.70,21,12,23,0.00
2013-9-19,75,69,62,69,64,60,95,86,74,29.74,29.64,14,4,21,1.28
2013-9-20,64,57,48,61,53,46,96,87,56,29.90,29.72,20,5,21,0.22
2013-9-21,64,52,44,48,45,41,96,80,49,29.98,29.89,17,2,17,0.00
2013-9-22,69,55,39,51,46,38,99,74,51,30.00,29.86,25,10,26,0.00
2013-9-23,72,61,51,54,50,46,83,67,43,29.95,29.87,30,14,31,0.00
2013-9-24,75,60,50,54,50,47,91,72,41,29.97,29.90,19,8,21,0.00
2013-9-25,73,59,45,54,50,44,100,74,46,29.97,29.87,19,6,20,0.00
2013-9-26,78,66,55,61,54,48,82,67,49,29.93,29.82,33,14,33,0.00
2013-9-27,81,71,63,62,59,54,76,66,50,29.90,29.77,34,18,38,0.00
2013-9-28,69,57,47,62,52,44,96,85,69,29.91,29.58,31,11,36,0.25
2013-9-29,74,58,45,51,46,42,92,66,35,29.94,29.75,27,11,28,0.00
2013-9-30,77,66,58,53,49,45,66,55,41,29.75,29.57,30,17,32,0.00
2013-10-1,75,63,51,53,43,33,79,51,24,29.95,29.52,25,10,27,0.00
2013-10-2,75,56,39,52,42,33,96,66,22,30.04,29.86,25,8,25,0.34
2013-10-3,56,54,53,56,54,52,99,98,96,29.94,29.84,19,6,20,0.18
2013-10-4,54,54,53,53,52,51,98,93,91,30.01,29.86,19,8,19,0.00
2013-10-5,60,55,49,60,54,49,100,97,92,29.88,29.69,19,5,24,0.44
2013-10-6,52,48,41,52,48,41,100,98,92,29.82,29.65,18,3,21,0.06
2013-10-7,65,48,39,51,42,36,100,83,38,29.98,29.80,14,4,16,0.00
2013-10-8,75,62,49,49,44,41,76,55,33,29.96,29.77,33,17,40,0.00
2013-10-9,75,64,56,52,49,45,73,59,39,30.02,29.88,25,14,25,0.00
2013-10-10,76,63,54,52,48,44,73,59,37,30.02,29.87,28,14,31,0.01
2013-10-11,75,66,56,58,52,49,79,62,46,29.87,29.60,39,18,42,0.00
2013-10-12,65,54,49,58,46,42,84,75,62,29.82,29.63,26,14,29,0.00
2013-10-13,59,49,38,37,35,32,89,62,38,30.40,30.36,15,3,16,0.00
2013-10-14,55,45,33,46,37,32,96,73,48,30.42,30.01,21,5,22,0.13
2013-10-15,51,48,44,50,47,44,99,97,93,30.01,29.65,29,8,30,1.12
2013-10-16,54,44,36,44,39,34,98,84,51,29.94,29.81,22,6,22,0.00
2013-10-17,55,44,35,45,40,33,96,85,56,29.88,29.75,21,4,21,0.04
2013-10-18,51,42,38,41,36,27,98,81,44,29.95,29.81,20,5,20,0.14
2013-10-19,48,39,32,38,35,30,95,86,52,29.82,29.68,15,4,18,0.06
2013-10-20,35,33,29,34,32,28,98,96,93,29.86,29.66,15,3,16,0.24
2013-10-21,38,34,30,34,24,19,97,70,53,29.95,29.86,24,7,27,0.00
2013-10-22,40,33,25,31,27,23,91,79,59,30.05,29.95,11,2,12,0.00
2013-10-23,36,33,30,30,26,21,91,78,60,30.11,29.99,17,2,18,0.01
2013-10-24,42,36,32,30,27,23,77,69,55,30.30,30.11,20,3,21,0.00
2013-10-25,53,42,30,42,33,27,92,70,55,30.31,29.74,31,9,33,0.00
2013-10-26,49,42,38,39,30,27,71,63,52,30.08,29.74,25,7,25,0.00
2013-10-27,54,39,30,34,28,26,86,68,44,30.18,29.81,22,8,25,0.00
2013-10-28,41,34,27,29,22,15,84,63,35,30.48,30.18,20,5,23,0.00
2013-10-29,37,33,26,33,27,22,89,78,62,30.46,30.13,14,4,16,0.00
2013-10-30,48,42,36,48,42,33,99,97,89,30.13,29.67,11,2,14,0.06
2013-10-31,48,43,39,48,43,39,100,99,98,29.67,29.37,13,3,15,0.21
2013-11-1,47,40,35,40,36,31,99,86,65,29.83,29.38,18,4,19,0.01
2013-11-2,47,38,28,34,29,26,91,73,49,30.11,29.83,15,3,16,0.00
2013-11-3,52,43,29,35,31,27,92,64,48,30.12,29.91,37,16,40,0.00
2013-11-4,47,43,33,44,36,31,94,77,58,30.14,29.81,34,14,35,0.15
2013-11-5,43,34,27,32,30,26,96,85,56,30.25,30.05,12,3,15,0.38
2013-11-6,38,31,28,31,28,25,97,88,63,30.17,30.04,15,3,17,0.04
2013-11-7,38,28,22,28,24,20,94,86,56,30.24,30.17,16,4,16,0.00
2013-11-8,40,32,21,37,27,19,94,80,59,30.21,29.59,31,11,33,0.09
2013-11-9,41,39,37,38,32,25,95,77,60,30.17,29.59,30,10,30,0.01
2013-11-10,41,36,28,30,27,23,82,69,57,30.32,30.09,21,6,23,0.00
2013-11-11,35,22,13,30,10,5,81,60,44,30.77,30.12,25,8,29,0.00
2013-11-12,28,18,9,13,7,4,83,64,37,30.82,30.46,20,5,20,0.00
2013-11-13,48,34,20,32,22,12,78,64,44,30.46,29.85,29,13,31,0.00
2013-11-14,48,38,32,35,32,29,92,77,59,29.85,29.74,16,7,16,0.00
2013-11-15,53,40,29,38,34,28,96,79,54,29.85,29.63,24,10,24,0.00
2013-11-16,46,43,40,45,40,33,99,89,74,29.63,29.25,26,10,27,0.12
2013-11-17,44,39,30,44,35,22,100,87,72,29.78,29.28,28,10,31,0.00
2013-11-18,30,25,16,22,18,13,89,74,65,30.30,29.78,31,7,31,0.00
2013-11-19,42,31,15,28,21,12,90,69,52,30.32,29.93,34,14,35,0.00
2013-11-20,44,40,35,32,27,22,91,62,46,30.05,29.89,28,15,29,0.00
2013-11-21,36,30,23,36,25,12,98,80,60,30.55,30.05,23,7,24,0.00
2013-11-22,32,21,10,15,8,-2,86,60,26,30.67,30.45,27,8,29,0.00
2013-11-23,17,9,2,1,-1,-5,74,63,46,30.88,30.67,19,5,23,0.00
2013-11-24,28,13,1,11,3,-5,78,65,45,30.76,30.20,35,12,35,0.00
2013-11-25,34,31,28,20,17,14,58,56,55,30.07,30.02,23,11,26,0.01
2013-11-26,28,18,7,17,6,0,76,59,45,30.43,30.07,30,10,30,0.00
2013-11-27,22,14,2,11,5,-3,83,68,52,30.43,30.11,15,5,18,0.00
2013-11-28,26,20,6,13,9,2,82,63,52,30.55,30.10,18,4,22,0.00
2013-11-29,30,20,2,19,11,-2,86,69,54,30.57,30.15,32,10,37,0.00
2013-11-30,38,29,22,25,22,18,89,74,59,30.19,30.03,22,4,23,0.00
2013-12-1,33,22,12,24,18,8,91,85,69,30.22,29.96,9,1,9,0.00
2013-12-2,34,30,21,32,28,18,95,89,82,29.97,29.64,23,8,24,0.08
2013-12-3,34,32,29,33,31,25,97,94,86,29.84,29.62,19,7,20,0.19
2013-12-4,29,27,18,27,24,13,95,90,79,29.83,29.44,28,6,28,0.28
2013-12-5,18,5,-6,13,-3,-14,80,70,61,30.39,29.64,24,11,26,0.12
2013-12-6,3,-6,-12,-8,-13,-19,76,70,59,30.71,30.39,16,6,17,0.00
2013-12-7,-1,-11,-19,-12,-19,-26,75,68,55,30.80,30.67,18,6,18,0.00
2013-12-8,9,0,-16,3,-6,-23,82,76,67,30.67,30.09,12,2,14,0.00
2013-12-9,5,-3,-8,0,-10,-16,82,71,56,30.16,29.97,24,8,25,0.00
2013-12-10,6,0,-7,-2,-7,-13,79,72,58,30.35,29.85,20,7,22,0.00
2013-12-11,0,-7,-16,-9,-15,-23,77,66,52,30.63,30.27,15,7,19,0.00
2013-12-12,15,5,-8,8,-2,-13,78,72,59,30.27,30.08,12,2,12,0.00
2013-12-13,13,10,8,6,3,0,80,74,69,30.26,30.09,12,4,15,0.00
2013-12-14,14,8,-1,6,2,-8,81,76,69,30.26,29.99,15,2,19,0.00
2013-12-15,-1,-6,-14,-8,-15,-22,74,64,50,30.14,30.02,14,4,16,0.00
2013-12-16,17,5,-9,13,-1,-17,87,75,62,30.11,29.78,24,7,24,0.00
2013-12-17,29,20,1,25,12,-4,89,74,55,30.02,29.73,29,7,29,0.00
2013-12-18,29,17,-1,19,11,-6,90,76,63,30.00,29.55,28,7,28,0.00
2013-12-19,16,15,12,13,9,4,90,77,65,30.03,29.71,20,6,20,0.00
2013-12-20,20,12,4,12,7,0,85,80,68,29.98,29.78,10,2,10,0.00
2013-12-21,22,15,9,15,10,5,87,80,72,29.94,29.77,9,1,10,0.00
2013-12-22,21,16,9,16,11,4,88,83,76,30.13,29.87,13,4,15,0.00
2013-12-23,9,0,-13,5,-6,-19,82,75,68,30.45,30.13,21,4,21,0.00
2013-12-24,9,-2,-18,4,-9,-25,81,73,62,30.45,30.07,21,9,31,0.01
2013-12-25,21,13,8,15,8,2,84,81,74,30.07,29.96,14,5,16,0.00
2013-12-26,20,15,8,14,10,3,87,80,73,30.09,30.00,11,1,13,0.00
2013-12-27,38,25,8,29,21,4,95,85,67,30.08,29.75,24,8,29,0.03
2013-12-28,39,28,16,32,25,11,98,90,69,29.93,29.57,26,6,30,0.10
2013-12-29,16,-3,-16,11,-13,-25,81,61,44,30.27,29.93,24,9,28,0.00
2013-12-30,-2,-9,-25,-10,-16,-33,75,70,64,30.26,30.16,8,1,9,0.00
2013-12-31,-5,-12,-18,-12,-19,-26,75,68,56,30.41,30.14,10,2,10,0.00
2014-1-1,-1,-6,-17,-11,-16,-24,69,63,56,30.49,30.39,7,1,9,0.00
2014-1-2,0,-12,-22,-14,-22,-31,70,59,39,30.47,30.33,7,1,8,0.00